Location: Darmstadt
(49.8706°N, 8.6494°E)
Time: 06:36:11
(UTC+01:00)

YAOGAN 6 - Pass Details

Date: 31 October 2020
Orbit: 464 x 504 km, 97.0° (Epoch: 03 December)

Event Time Altitude Azimuth Distance (km) Brightness Sun altitude
Rises 17:55:06 0° 181° (S) 2,578 6.4 -8.8°
Reaches altitude 10° 17:57:14 10° 187° (S) 1,704 5.6 -9.1°
Maximum altitude 18:00:46 46° 262° (W) 691 3.9 -9.7°
Drops below altitude 10° 18:04:22 10° 336° (NNW) 1,729 5.5 -10.2°
Sets 18:06:33 0° 343° (NNW) 2,620 6.4 -10.6°
